Weather History for Danville, KY

Change the Weather History Date:

Friday, February 8, 2013

  Actual Average (KLEX) Record (KLEX)
Temperature  
Mean Temperature 39 °F 35 °F  
Max Temperature 46 °F 44 °F 74 °F (1937)
Min Temperature 32 °F 27 °F -13 °F (1895)
Degree Days  
Heating Degree Days 26 30  
Month to date heating degree days 244  
Since 1 July heating degree days 3027  
Cooling Degree Days 0 0  
Month to date cooling degree days 0  
Year to date cooling degree days 0  
Moisture  
Dew Point 35 °F    
Average Humidity 88    
Maximum Humidity 100    
Minimum Humidity 81    
Precipitation  
Precipitation 0.00 in 0.11 in 1.00 in (1994)
Month to date precipitation 0.92  
Year to date precipitation 4.12  
Snow  
Snow 0.00 in 0.20 in 7.30 in (1971)
Month to date snowfall 1.5  
Since 1 July snowfall 8.2  
Snow Depth -    
Sea Level Pressure  
Sea Level Pressure 30.09 in    
Wind  
Wind Speed 9 mph (NW)    
Max Wind Speed 17 mph    
Max Gust Speed 25 mph    
Visibility 9 miles    
Events Rain    
T = Trace of Precipitation, MM = Missing Value Source: NWS Daily Summary

Daily Weather History Graph

Daily Weather History Graph

Search for Another Location

Airport:

Trip Planner

Search our weather history database for the weather conditions in past years. The results will help you decide how hot, cold, wet, or windy it might be!

Date:

Astronomy

Feb. 08, 2013 Rise Set
Actual Time 7:35 AM EST 6:11 PM EST
Civil Twilight 7:08 AM EST 6:38 PM EST
Nautical Twilight 6:37 AM EST 7:09 PM EST
Astronomical Twilight 6:07 AM EST 7:39 PM EST
Moon 6:02 AM EST (2/8) 4:44 PM EST (2/8)
Length of Visible Light 11h 29m
Length of Day
10h 35m
Waning Crescent, 3% of the Moon is Illuminated
Feb 8
Waning Crescent
Feb 10
New
Feb 17
First Quarter
Feb 25
Full
Mar 4
Last Quarter

Hourly Weather History & Observations

Time (EST) Temp. Windchill Dew Point Humidity Pressure Visibility Wind Dir Wind Speed Gust Speed Precip Events Conditions
12:15 AM 44.6 °F 40.2 °F 41.0 °F 87% 29.90 in 10.0 mi SSW 8.1 mph - N/A   Clear
12:35 AM 44.6 °F 40.7 °F 41.0 °F 87% 29.90 in 10.0 mi SW 6.9 mph - N/A   Clear
12:55 AM 44.6 °F 40.7 °F 41.0 °F 87% 29.89 in 10.0 mi SSW 6.9 mph - N/A   Clear
1:15 AM 44.6 °F 40.7 °F 41.0 °F 87% 29.88 in 10.0 mi SSW 6.9 mph - N/A   Clear
1:35 AM 44.6 °F 40.2 °F 41.0 °F 87% 29.88 in 10.0 mi SSW 8.1 mph - N/A   Scattered Clouds
1:55 AM 44.6 °F 39.2 °F 42.8 °F 93% 29.87 in 10.0 mi SSW 10.4 mph - N/A   Mostly Cloudy
2:15 AM 44.6 °F 40.2 °F 42.8 °F 93% 29.87 in 10.0 mi SSW 8.1 mph - N/A   Overcast
2:35 AM 44.6 °F 40.2 °F 42.8 °F 93% 29.87 in 10.0 mi SSW 8.1 mph - N/A   Overcast
2:55 AM 44.6 °F 40.2 °F 42.8 °F 93% 29.86 in 10.0 mi SSW 8.1 mph - N/A   Overcast
3:15 AM 44.6 °F 40.2 °F 42.8 °F 93% 29.86 in 10.0 mi SW 8.1 mph - N/A   Overcast
3:35 AM 44.6 °F 40.7 °F 42.8 °F 93% 29.86 in 10.0 mi SW 6.9 mph - N/A Rain Light Rain
3:55 AM 46.4 °F 41.9 °F 42.8 °F 87% 29.86 in 7.0 mi SW 9.2 mph - N/A Rain Rain
4:15 AM 46.4 °F 41.5 °F 44.6 °F 93% 29.86 in 7.0 mi WSW 10.4 mph - N/A Rain Rain
4:35 AM 44.6 °F 40.2 °F 44.6 °F 100% 29.87 in 7.0 mi WSW 8.1 mph - N/A Rain Rain
4:55 AM 46.4 °F 41.9 °F 44.6 °F 93% 29.87 in 7.0 mi WSW 9.2 mph - N/A Rain Rain
5:15 AM 46.4 °F 42.9 °F 44.6 °F 93% 29.87 in 5.0 mi WSW 6.9 mph - N/A Rain Heavy Rain
5:35 AM 46.4 °F 42.4 °F 44.6 °F 93% 29.87 in 7.0 mi West 8.1 mph - N/A Rain Heavy Rain
5:55 AM 46.4 °F 41.5 °F 44.6 °F 93% 29.88 in 10.0 mi West 10.4 mph 16.1 mph N/A   Drizzle
6:15 AM 44.6 °F 37.8 °F 42.8 °F 93% 29.90 in 7.0 mi NW 15.0 mph 25.3 mph N/A   Drizzle
6:35 AM 42.8 °F 36.6 °F 41.0 °F 93% 29.92 in 3.0 mi NW 11.5 mph 21.9 mph N/A Rain Rain
6:55 AM 41.0 °F 33.9 °F 41.0 °F 100% 29.93 in 7.0 mi NW 12.7 mph 19.6 mph N/A   Drizzle
7:15 AM 41.0 °F 33.9 °F 39.2 °F 93% 29.95 in 10.0 mi NW 12.7 mph 23.0 mph N/A   Light Drizzle
7:35 AM 41.0 °F 33.5 °F 39.2 °F 93% 29.96 in 10.0 mi NNW 13.8 mph 20.7 mph N/A   Overcast
7:55 AM 41.0 °F 34.3 °F 39.2 °F 93% 29.98 in 10.0 mi NW 11.5 mph 18.4 mph N/A   Overcast
8:15 AM 39.2 °F 32.5 °F 37.4 °F 93% 30.00 in 4.0 mi NW 10.4 mph 17.3 mph N/A   Overcast
8:35 AM 37.4 °F 28.5 °F 37.4 °F 100% 30.01 in 7.0 mi NW 15.0 mph 19.6 mph N/A   Overcast
8:55 AM 37.4 °F 29.3 °F 35.6 °F 93% 30.03 in 10.0 mi NW 12.7 mph 17.3 mph N/A   Overcast
9:15 AM 37.4 °F 27.8 °F 33.8 °F 87% 30.05 in 10.0 mi NW 17.3 mph 24.2 mph N/A   Overcast
9:35 AM 37.4 °F 28.5 °F 33.8 °F 87% 30.06 in 10.0 mi NNW 15.0 mph 19.6 mph N/A   Overcast
9:55 AM 37.4 °F 29.8 °F 33.8 °F 87% 30.06 in 10.0 mi NNW 11.5 mph 18.4 mph N/A   Overcast
10:15 AM 37.4 °F 29.8 °F 33.8 °F 87% 30.07 in 10.0 mi NNW 11.5 mph 20.7 mph N/A   Overcast
10:35 AM 37.4 °F 29.8 °F 33.8 °F 87% 30.08 in 10.0 mi NNW 11.5 mph 20.7 mph N/A   Overcast
10:55 AM 35.6 °F 27.1 °F 33.8 °F 93% 30.09 in 10.0 mi NNW 12.7 mph - N/A   Overcast
11:15 AM 35.6 °F 27.5 °F 32.0 °F 87% 30.11 in 10.0 mi NNW 11.5 mph 19.6 mph N/A   Overcast
11:35 AM 35.6 °F 26.6 °F 32.0 °F 87% 30.12 in 10.0 mi NNW 13.8 mph 19.6 mph N/A   Overcast
11:55 AM 35.6 °F 28.0 °F 32.0 °F 87% 30.13 in 10.0 mi NNW 10.4 mph 16.1 mph N/A   Overcast
12:15 PM 35.6 °F 27.5 °F 32.0 °F 87% 30.14 in 10.0 mi North 11.5 mph - N/A   Overcast
12:35 PM 35.6 °F 29.2 °F 32.0 °F 87% 30.14 in 10.0 mi NNW 8.1 mph 16.1 mph N/A   Overcast
12:55 PM 35.6 °F 28.6 °F 32.0 °F 87% 30.14 in 10.0 mi NNW 9.2 mph 16.1 mph N/A   Overcast
1:15 PM 35.6 °F 29.2 °F 32.0 °F 87% 30.14 in 10.0 mi NNW 8.1 mph - N/A   Overcast
1:35 PM 35.6 °F 28.6 °F 32.0 °F 87% 30.14 in 10.0 mi NNW 9.2 mph 18.4 mph N/A   Overcast
1:55 PM 35.6 °F 27.5 °F 32.0 °F 87% 30.15 in 10.0 mi NNW 11.5 mph 17.3 mph N/A   Overcast
2:15 PM 35.6 °F 28.0 °F 32.0 °F 87% 30.16 in 10.0 mi NNW 10.4 mph 16.1 mph N/A   Overcast
2:35 PM 35.6 °F 27.5 °F 32.0 °F 87% 30.16 in 10.0 mi NNW 11.5 mph 16.1 mph N/A   Overcast
2:55 PM 35.6 °F 27.5 °F 32.0 °F 87% 30.16 in 10.0 mi NNW 11.5 mph 16.1 mph N/A   Overcast
3:15 PM 35.6 °F 28.0 °F 32.0 °F 87% 30.17 in 10.0 mi NNW 10.4 mph - N/A   Overcast
3:35 PM 35.6 °F 27.1 °F 32.0 °F 87% 30.17 in 10.0 mi NNW 12.7 mph - N/A   Overcast
3:55 PM 35.6 °F 28.0 °F 32.0 °F 87% 30.18 in 10.0 mi NNW 10.4 mph - N/A   Overcast
4:15 PM 35.6 °F 28.6 °F 30.2 °F 81% 30.19 in 10.0 mi NNW 9.2 mph - N/A   Overcast
4:35 PM 35.6 °F 28.6 °F 30.2 °F 81% 30.20 in 10.0 mi NNW 9.2 mph - N/A   Overcast
4:55 PM 35.6 °F 28.6 °F 30.2 °F 81% 30.21 in 10.0 mi NNW 9.2 mph - N/A   Overcast
5:15 PM 33.8 °F 25.8 °F 30.2 °F 87% 30.22 in 10.0 mi NNW 10.4 mph - N/A   Overcast
5:35 PM 33.8 °F 26.4 °F 30.2 °F 87% 30.23 in 10.0 mi NNW 9.2 mph - N/A   Overcast
5:55 PM 33.8 °F 25.3 °F 30.2 °F 87% 30.24 in 10.0 mi North 11.5 mph - N/A   Overcast
6:15 PM 33.8 °F 26.4 °F 28.4 °F 81% 30.25 in 10.0 mi NNW 9.2 mph 16.1 mph N/A   Overcast
6:35 PM 33.8 °F 25.8 °F 28.4 °F 81% 30.26 in 10.0 mi NNW 10.4 mph - N/A   Overcast
6:55 PM 33.8 °F 25.8 °F 28.4 °F 81% 30.27 in 10.0 mi NNW 10.4 mph - N/A   Overcast
7:15 PM 33.8 °F 27.0 °F 28.4 °F 81% 30.27 in 10.0 mi North 8.1 mph - N/A   Overcast
7:35 PM 33.8 °F 26.4 °F 28.4 °F 81% 30.29 in 10.0 mi NNW 9.2 mph - N/A   Overcast
7:55 PM 33.8 °F 26.4 °F 28.4 °F 81% 30.29 in 10.0 mi NNW 9.2 mph - N/A   Overcast
8:15 PM 32.0 °F 24.2 °F 28.4 °F 87% 30.29 in 10.0 mi North 9.2 mph - N/A   Overcast
8:35 PM 32.0 °F 24.8 °F 28.4 °F 87% 30.30 in 10.0 mi North 8.1 mph - N/A   Overcast
8:55 PM 32.0 °F 24.2 °F 28.4 °F 87% 30.31 in 10.0 mi NNW 9.2 mph - N/A   Overcast
9:15 PM 32.0 °F 25.6 °F 28.4 °F 87% 30.31 in 10.0 mi NNW 6.9 mph - N/A   Overcast
9:35 PM 33.8 °F 29.6 °F 28.4 °F 81% 30.32 in 10.0 mi NNW 4.6 mph - N/A   Overcast
9:55 PM 33.8 °F 30.8 °F 28.4 °F 81% 30.32 in 10.0 mi NNW 3.5 mph - N/A   Overcast
10:15 PM 32.0 °F 27.5 °F 28.4 °F 87% 30.32 in 10.0 mi NNW 4.6 mph - N/A   Overcast
10:35 PM 32.0 °F 26.4 °F 28.4 °F 87% 30.32 in 10.0 mi NNW 5.8 mph - N/A   Overcast
10:55 PM 32.0 °F 28.7 °F 28.4 °F 87% 30.32 in 10.0 mi NNW 3.5 mph - N/A   Overcast
11:15 PM 32.0 °F 28.7 °F 28.4 °F 87% 30.32 in 10.0 mi NW 3.5 mph - N/A   Overcast
11:35 PM 32.0 °F - 28.4 °F 87% 30.31 in 10.0 mi Calm Calm - N/A   Overcast
11:55 PM 32.0 °F 26.4 °F 28.4 °F 87% 30.32 in 10.0 mi NNW 5.8 mph - N/A   Overcast